Volver al catálogo

ONEWEB-0617

ActivoComunicacionesPO
NORAD 55158·PAYLOAD·🇬🇧 United Kingdom

Lanzado Jan 10, 2023 desde Cape Canaveral Space Force Station

Loading…

Próximos Pases (próximas 24 horas)

TLE

ActualizadoSource: CelesTrak SupGP

Época: Sep 14, 2026, 15:52 UTC

1 55158C 23004U   26257.66127732  .00001976  00000+0  55834-2 0  2575
2 55158  87.8974   3.2827 0001763 115.6773 347.5896 13.11415655    13

Sigue ONEWEB-0617 en tiempo real con AllMySat

Download on the App Store